DLH1785 EGLL-EDDF

Flight info

Callsign DLH1785
Flight time N/A
Altitude 35000
Route BPK Q295 MATCH DCT REDFA DCT TACHA DCT NOLRU DCT DIXAT DIXAT1D
Aircraft A21N/M-SDE2E3FGHIRWXY/LB1

Departure

Time 2026-05-07 19:37
Airport London Heathrow Airport (EGLL)

Arrival

Time N/A
Airport Frankfurt Main Airport (EDDF)
Time Latitude Longitude Altitude Speed Heading
2026-05-07 19:02 51.47146 -0.46503 77 ft 0 kts 237°
2026-05-07 19:21 51.47154 -0.46482 88 ft 8 kts 238°
2026-05-07 19:21 51.47183 -0.46404 88 ft 6 kts 246°
2026-05-07 19:21 51.47187 -0.46373 88 ft 3 kts 293°
2026-05-07 19:22 51.47178 -0.46354 89 ft 2 kts 325°
2026-05-07 19:22 51.47168 -0.46343 89 ft 2 kts 326°
2026-05-07 19:22 51.47164 -0.46339 86 ft 0 kts 327°
2026-05-07 19:27 51.47182 -0.46360 87 ft 7 kts 324°
2026-05-07 19:28 51.47230 -0.46424 87 ft 11 kts 309°
2026-05-07 19:28 51.47239 -0.46543 86 ft 13 kts 271°
2026-05-07 19:28 51.47240 -0.46693 85 ft 14 kts 270°
2026-05-07 19:28 51.47226 -0.46842 87 ft 11 kts 233°
2026-05-07 19:29 51.47142 -0.46867 85 ft 14 kts 178°
2026-05-07 19:29 51.47049 -0.46867 85 ft 16 kts 180°
2026-05-07 19:29 51.46924 -0.46866 84 ft 18 kts 180°
2026-05-07 19:29 51.46817 -0.46866 86 ft 12 kts 177°
2026-05-07 19:30 51.46748 -0.46918 89 ft 15 kts 247°
2026-05-07 19:30 51.46747 -0.47140 87 ft 23 kts 270°
2026-05-07 19:30 51.46747 -0.47372 87 ft 19 kts 270°
2026-05-07 19:30 51.46747 -0.47503 85 ft 17 kts 269°
2026-05-07 19:31 51.46745 -0.47740 83 ft 20 kts 269°
2026-05-07 19:31 51.46745 -0.47911 84 ft 23 kts 269°
2026-05-07 19:31 51.46743 -0.48195 87 ft 14 kts 269°
2026-05-07 19:31 51.46743 -0.48370 89 ft 19 kts 270°
2026-05-07 19:32 51.46739 -0.48528 87 ft 23 kts 266°
2026-05-07 19:32 51.46715 -0.48734 89 ft 14 kts 222°
2026-05-07 19:32 51.46634 -0.48751 88 ft 12 kts 183°
2026-05-07 19:32 51.46594 -0.48770 86 ft 0 kts 199°
2026-05-07 19:35 51.46572 -0.48781 84 ft 8 kts 196°
2026-05-07 19:36 51.46496 -0.48753 88 ft 14 kts 136°
2026-05-07 19:36 51.46478 -0.48623 87 ft 12 kts 91°
2026-05-07 19:36 51.46478 -0.48559 86 ft 3 kts 89°
2026-05-07 19:36 51.46478 -0.48447 87 ft 34 kts 89°
2026-05-07 19:37 51.46483 -0.47631 82 ft 112 kts 90°
2026-05-07 19:37 51.46486 -0.45989 136 ft 177 kts 90°
2026-05-07 19:37 51.46474 -0.43890 812 ft 193 kts 90°
2026-05-07 19:37 51.46546 -0.41823 1854 ft 186 kts 77°
2026-05-07 19:38 51.47259 -0.39985 2293 ft 211 kts 43°
2026-05-07 19:38 51.48380 -0.38208 2826 ft 241 kts 44°
2026-05-07 19:38 51.49548 -0.36079 3515 ft 268 kts 49°
2026-05-07 19:38 51.50761 -0.33706 4596 ft 274 kts 48°
2026-05-07 19:39 51.51964 -0.31260 5697 ft 288 kts 58°
2026-05-07 19:39 51.52778 -0.28260 5982 ft 293 kts 71°
2026-05-07 19:39 51.53337 -0.25169 5961 ft 293 kts 73°
2026-05-07 19:39 51.53942 -0.22018 5962 ft 290 kts 69°
2026-05-07 19:40 51.54836 -0.19187 5968 ft 287 kts 46°
2026-05-07 19:40 51.56401 -0.17267 5969 ft 283 kts 20°
2026-05-07 19:40 51.58285 -0.16590 5971 ft 276 kts
2026-05-07 19:40 51.60199 -0.16248 5960 ft 276 kts
2026-05-07 19:41 51.62109 -0.15909 5961 ft 276 kts
2026-05-07 19:41 51.64024 -0.15540 5964 ft 277 kts
2026-05-07 19:41 51.65923 -0.14908 5967 ft 279 kts 14°
2026-05-07 19:41 51.67753 -0.13983 5967 ft 279 kts 14°
2026-05-07 19:42 51.69618 -0.13116 5964 ft 280 kts 12°
2026-05-07 19:42 51.71533 -0.12268 6672 ft 280 kts 13°
2026-05-07 19:42 51.73283 -0.10987 7996 ft 282 kts 37°
2026-05-07 19:42 51.74554 -0.08494 8859 ft 296 kts 64°
2026-05-07 19:43 51.75121 -0.05274 9845 ft 301 kts 80°
2026-05-07 19:43 51.75425 -0.01907 10771 ft 307 kts 82°
2026-05-07 19:43 51.75735 0.01600 11372 ft 325 kts 81°
2026-05-07 19:43 51.76101 0.05301 11872 ft 346 kts 80°
2026-05-07 19:44 51.76495 0.09246 12542 ft 358 kts 81°
2026-05-07 19:44 51.76872 0.13217 13614 ft 358 kts 81°
2026-05-07 19:44 51.77254 0.17234 14432 ft 366 kts 81°
2026-05-07 19:44 51.77588 0.21322 15300 ft 370 kts 84°
2026-05-07 19:45 51.77929 0.25461 16121 ft 374 kts 76°
2026-05-07 19:45 51.78642 0.29533 16909 ft 378 kts 73°
2026-05-07 19:45 51.79356 0.33649 17685 ft 383 kts 75°
2026-05-07 19:45 51.79981 0.37792 18418 ft 387 kts 76°
2026-05-07 19:46 51.80621 0.42042 19134 ft 391 kts 75°
2026-05-07 19:46 51.81324 0.46367 19841 ft 395 kts 74°
2026-05-07 19:46 51.82018 0.50629 20506 ft 399 kts 75°
2026-05-07 19:46 51.82704 0.55022 21150 ft 404 kts 75°
2026-05-07 19:47 51.83389 0.59436 21784 ft 407 kts 75°
2026-05-07 19:47 51.84095 0.63905 22406 ft 411 kts 75°
2026-05-07 19:47 51.84805 0.68408 22987 ft 415 kts 75°
2026-05-07 19:47 51.85510 0.72945 23560 ft 418 kts 75°
2026-05-07 19:48 51.86225 0.77547 24114 ft 422 kts 75°
2026-05-07 19:48 51.86938 0.82122 24639 ft 425 kts 75°
2026-05-07 19:48 51.87659 0.86778 25164 ft 429 kts 75°
2026-05-07 19:48 51.88385 0.91495 25667 ft 432 kts 75°
2026-05-07 19:49 51.89114 0.96225 26158 ft 435 kts 75°
2026-05-07 19:49 51.89850 1.01014 26634 ft 439 kts 75°
2026-05-07 19:49 51.90590 1.05851 27087 ft 442 kts 76°
2026-05-07 19:49 51.91328 1.10691 27544 ft 445 kts 76°
2026-05-07 19:50 51.92070 1.15571 27968 ft 448 kts 76°
2026-05-07 19:50 51.92827 1.20552 28023 ft 462 kts 76°
2026-05-07 19:50 51.93602 1.25679 28034 ft 475 kts 76°
2026-05-07 19:50 51.94385 1.30878 28170 ft 485 kts 76°
2026-05-07 19:51 51.95179 1.36176 28828 ft 481 kts 76°
2026-05-07 19:51 51.95965 1.41417 29500 ft 479 kts 76°
2026-05-07 19:51 51.96745 1.46655 30020 ft 479 kts 76°
2026-05-07 19:51 51.97526 1.51914 30539 ft 478 kts 76°
2026-05-07 19:52 51.98302 1.57135 31062 ft 477 kts 76°
2026-05-07 19:52 51.99074 1.62364 31548 ft 476 kts 76°
2026-05-07 19:52 51.99841 1.67585 32021 ft 475 kts 76°
2026-05-07 19:52 52.00605 1.72790 32485 ft 474 kts 76°
2026-05-07 19:53 52.01367 1.77997 32921 ft 473 kts 76°
2026-05-07 19:53 52.02124 1.83192 33346 ft 472 kts 76°
2026-05-07 19:53 52.02880 1.88401 33751 ft 472 kts 76°
2026-05-07 19:53 52.03629 1.93573 34146 ft 471 kts 76°
2026-05-07 19:54 52.04377 1.98757 34523 ft 470 kts 76°
2026-05-07 19:54 52.05120 2.03928 34882 ft 470 kts 76°
2026-05-07 19:54 52.06621 2.14412 34958 ft 485 kts 76°
2026-05-07 19:55 52.08153 2.25196 34963 ft 501 kts 77°
2026-05-07 19:55 52.09715 2.36286 34967 ft 504 kts 77°
2026-05-07 19:56 52.11278 2.47429 34963 ft 504 kts 76°
2026-05-07 19:56 52.13305 2.58335 34963 ft 503 kts 72°
2026-05-07 19:57 52.15351 2.69231 34964 ft 503 kts 72°
2026-05-07 19:57 52.17437 2.80178 34967 ft 502 kts 72°
2026-05-07 19:58 52.19454 2.90970 34964 ft 502 kts 72°
2026-05-07 19:58 52.21495 3.01859 34967 ft 501 kts 72°
2026-05-07 19:59 52.23513 3.12745 34966 ft 502 kts 72°
2026-05-07 19:59 52.24866 3.23890 35003 ft 503 kts 93°
2026-05-07 20:00 52.24296 3.29503 34979 ft 503 kts 109°
2026-05-07 20:00 52.23105 3.34887 34961 ft 504 kts 112°
2026-05-07 20:00 52.20488 3.45461 34959 ft 502 kts 112°
2026-05-07 20:01 52.18001 3.56029 34959 ft 502 kts 112°
2026-05-07 20:01 52.15418 3.66599 34962 ft 502 kts 112°
2026-05-07 20:02 52.12864 3.77209 34964 ft 503 kts 112°
2026-05-07 20:02 52.10524 3.86766 34966 ft 504 kts 112°
2026-05-07 20:03 52.07938 3.97353 34964 ft 504 kts 112°
2026-05-07 20:03 52.05325 4.07960 34966 ft 505 kts 112°
2026-05-07 20:04 52.02705 4.18572 34964 ft 504 kts 112°
2026-05-07 20:04 52.00089 4.29097 34964 ft 502 kts 112°
2026-05-07 20:05 51.97472 4.39592 34967 ft 502 kts 112°
2026-05-07 20:05 51.94841 4.50080 34964 ft 502 kts 112°
2026-05-07 20:06 51.92217 4.60498 34967 ft 503 kts 113°
2026-05-07 20:06 51.89562 4.70988 34963 ft 504 kts 113°
2026-05-07 20:07 51.86888 4.81504 34966 ft 505 kts 113°
2026-05-07 20:07 51.84218 4.91957 34967 ft 503 kts 113°
2026-05-07 20:08 51.80839 5.01720 35000 ft 498 kts 137°
2026-05-07 20:08 51.78043 5.04986 34999 ft 496 kts 155°
2026-05-07 20:08 51.74844 5.06963 34973 ft 492 kts 169°
2026-05-07 20:09 51.71464 5.07602 34980 ft 488 kts 183°
2026-05-07 20:09 51.68117 5.06871 34979 ft 484 kts 198°
2026-05-07 20:10 51.59983 5.00901 34959 ft 482 kts 208°
2026-05-07 20:10 51.56054 4.97928 34955 ft 463 kts 206°
2026-05-07 20:10 51.53190 4.95813 34639 ft 445 kts 207°
2026-05-07 20:10 51.50454 4.93725 32905 ft 440 kts 208°
2026-05-07 20:11 51.47672 4.91547 30540 ft 455 kts 207°
2026-05-07 20:11 51.44956 4.89474 28727 ft 460 kts 207°
2026-05-07 20:11 51.42044 4.87307 26866 ft 460 kts 207°
2026-05-07 20:11 51.39186 4.85149 25485 ft 449 kts 207°
2026-05-07 20:12 51.36423 4.83039 24949 ft 419 kts 207°
2026-05-07 20:12 51.33888 4.81126 24955 ft 394 kts 207°
2026-05-07 20:12 51.31455 4.79299 24782 ft 376 kts 207°
2026-05-07 20:12 51.29087 4.77515 23355 ft 379 kts 207°
2026-05-07 20:13 51.26721 4.75719 22269 ft 374 kts 207°
2026-05-07 20:13 51.24418 4.73994 21304 ft 366 kts 207°
2026-05-07 20:13 51.22102 4.72261 20233 ft 361 kts 207°
2026-05-07 20:13 51.19872 4.70583 19218 ft 355 kts 207°
2026-05-07 20:14 51.17664 4.68928 18214 ft 349 kts 207°
2026-05-07 20:14 51.15477 4.67292 17198 ft 344 kts 207°
2026-05-07 20:14 51.13353 4.65701 16678 ft 324 kts 207°
2026-05-07 20:14 51.11395 4.64241 16482 ft 297 kts 207°
2026-05-07 20:15 51.09564 4.62883 15837 ft 289 kts 207°
2026-05-07 20:15 51.07761 4.61540 15005 ft 287 kts 208°
2026-05-07 20:15 51.05981 4.60209 14731 ft 282 kts 208°